{"data":{"norad_id":65339,"epoch":"2026-09-20T13:38:22.854912Z","epoch_age_seconds":111572,"freshness":"FRESH","line1":"1 65339U 25189S   26263.56832008  .00005996  00000+0  20472-3 0  9998","line2":"2 65339  53.1588  20.1298 0000831  80.8202 279.2893 15.31713859 60977","mean_motion":15.31713859,"eccentricity":8.31e-5,"inclination_deg":53.1588,"raan_deg":20.1298,"arg_perigee_deg":80.8202,"mean_anomaly_deg":279.2893,"bstar":0.00020472,"rev_number":6097,"period_min":94.012337326511,"perigee_km":470.12954433409,"apogee_km":471.26782082453,"semimajor_km":6848.8356825793,"source":"CELESTRAK","updated_at":"2026-09-21T09:00:35.572147Z"}}